Printer-friendly version

IAU Minor Planet Center

Minor Planet Center

MPEC 2007-K24 : 2003 WG

The following Minor Planet Electronic Circular may be linked-to from your own Web pages, but must not otherwise be redistributed electronically.


Read MPEC 2007-K23 Read MPEC 2007-K25


M.P.E.C. 2007-K24                                Issued 2007 May 19, 19:28 UT

     The Minor Planet Electronic Circulars contain information on unusual
         minor planets and routine data on comets.  They are published
   on behalf of Commission 20 of the International Astronomical Union by the
          Minor Planet Center, Smithsonian Astrophysical Observatory,
                          Cambridge, MA 02138, U.S.A.

             Prepared using the Tamkin Foundation Computer Network

                              MPC@CFA.HARVARD.EDU
          URL http://www.cfa.harvard.edu/iau/mpc.html  ISSN 1523-6714

                                    2003 WG

                           Revision to MPEC 2003-W16

Additional Observations:
     K03W00G  C2007 05 18.21051 10 31 07.09 +31 36 11.8                 EK024291
     K03W00G  C2007 05 18.22238 10 31 05.51 +31 35 51.3          20.9 V EK024291
     K03W00G  C2007 05 18.23421 10 31 03.97 +31 35 32.7                 EK024291
     K03W00G  C2007 05 19.21695 10 29 00.05 +31 08 26.9                 EK024291
     K03W00G  C2007 05 19.22686 10 28 58.79 +31 08 11.0                 EK024291
     K03W00G  C2007 05 19.23695 10 28 57.53 +31 07 53.0                 EK024291

Observer details:
291 LPL/Spacewatch II.  Observers R. S. McMillan, M. T. Read.  1.8-m f/2.7
    reflector + CCD.

First and last observations above in comparison with prediction:
Residuals in seconds of arc (or two decimals in degrees), reference and Delta-T
070518 291 0.57+ 0.07+    070519 291 0.62+ 0.09+    MPO 58044   +2.0 day

Orbital elements:
2003 WG                                             PHA, Earth MOID = 0.0323 AU
Epoch 2007 Apr. 10.0 TT = JDT 2454200.5                 MPC
M 333.52029              (2000.0)            P               Q
n   0.25865132     Peri.  261.74764     +0.54560696     +0.76879746
a   2.4396428      Node    46.95879     -0.46799592     +0.60969380
e   0.7834980      Incl.   27.15469     -0.69519268     +0.19293505
P   3.81           H   19.1           G   0.15           U   2
Residuals in seconds of arc
031118 699  0.3+  0.3-    031120 170  0.2+  0.6-    031127 H72  1.4-  0.2-
031118 699  0.3+  0.0     031120 246  0.3-  0.5-    031127 H72  1.4+  1.7-
031118 699  0.3+  0.1+    031120 246  0.2+  0.1+    031127 H72  0.5-  0.8-
031118 699  0.8+  1.8-    031120 246  0.4-  0.2-    031127 H72  1.4+  0.4-
031118 673  0.4+  0.3+    031120 246  0.6-  0.1-    031127 H72  0.3-  0.1+
031118 673  0.4+  0.1+    031120 246  0.6-  0.4-    031127 J95  0.6-  0.2-
031118 673  0.4+  0.3+    031120 246  0.4-  0.2+    031127 J95  0.1-  0.4+
031118 673  0.5+  0.3+    031121 H41  0.3-  0.9-    031127 J95  0.2+  0.2-
031118 673  0.4+  0.1+    031121 H41  0.6-  0.3-    031127 941  0.2-  0.4-
031118 673  0.9+  0.4+    031121 H41  0.3+  0.3+    031127 941  0.1-  0.1-
031118 104  0.3-  0.2+    031121 H41  0.2+  0.5-    031127 941  0.3-  0.2-
031118 104  1.1-  0.3-    031121 H41  0.9+  0.3+    031127 941  0.4-  0.2-
031118 104  0.3-  0.2+    031121 H41  0.5+  0.4+    031127 941  0.2-  0.2-
031118 104  1.5-  0.4-    031121 H41  1.1+  1.0+    031127 170  0.2-  0.4-
031118 026  0.0   0.2-    031121 H41  0.1+  0.3+    031127 170  0.2-  0.5-
031118 026  0.0   0.2-    031121 176  0.1-  0.3+    031127 170  0.5-  0.4-
031118 132  0.2-  0.3+    031121 176  0.0   0.3+    031128 711  0.5+  0.3+
031118 132  0.0   0.4+    031121 176  0.2+  0.3+    031128 291  0.1+  0.7+
031118 587  0.5+  0.8-    031121 176  0.4+  0.3+    031128 711  0.9+  0.4+
031118 132  0.4-  0.2+    031121 176  0.8+  0.3+    031128 291  0.0   0.5+
031118 587  0.2-  0.5-    031122 246  0.4-  0.6-    031128 711  0.3+  0.0
031118 132  0.4-  0.2+    031122 246  0.4-  0.3-    031128 715  0.4-  0.0
031118 587  0.5-  1.7+    031122 246  0.6-  0.8-    031128 715  0.4-  0.0
031118 587  0.9-  0.9+    031122 246  0.2+  0.3-    031128 715  0.4-  0.2+
031119 750  0.3+  0.4-    031122 246  0.3-  0.4-    031128 715  0.2-  0.1+
031119 750  0.0   0.5-    031122 246  0.5-  0.5-    031128 649  0.4-  0.1+
031119 750  0.2-  0.2-    031122 246  0.2+  0.2+    031128 649  0.2-  0.0
031119 750  0.3+  0.2-    031122 246  0.1-  0.1-    031128 649  0.2-  0.0
031119 670  0.8-  0.6-    031123 291  0.0   0.0     031128 176  0.5-  0.2-
031119 670  0.1+  0.0     031123 291  0.5+  0.3-    031128 176  0.4-  0.2-
031119 670  0.4-  0.6+    031123 291  0.7+  0.2+    031128 176  0.3-  0.1-
031119 670  0.5-  0.1+    031123 H72  0.9-  1.7-    031128 176  0.2-  0.0
031119 649  0.0   0.4-    031123 H72  0.3+  0.5-    031128 176  0.1-  0.0
031119 649  0.4+  0.1+    031123 H72  1.2-  1.2+    031128 176  0.0   0.0
031119 649  0.4-  0.5-    031123 H72  0.2+  1.6+    031128 176  0.0   0.1+
031119 649  0.0   0.5-    031123 151  1.1+  2.0+    031207 966  1.3-  0.1+
031119 649  0.5+  0.3+    031123 151  1.3+  1.2+    031207 966  0.5-  0.0
031119 151  0.3+  1.0+    031123 151  1.3+  1.2+    031208 540  0.6-  0.1+
031119 151  0.5+  0.3+    031123 246  0.5-  0.2+    031208 540  0.8-  0.1-
031119 151  0.9+  0.3+    031123 246  0.4-  0.4-    031208 540  0.1-  0.4-
031119 132  0.3-  0.2-    031123 246  0.6-  0.2-    031211 926  1.8-  1.7+
031119 132  0.2-  0.6-    031123 246  0.4-  0.0     031211 926  0.5-  0.2+
031119 132  0.2-  0.3-    031124 291  0.5+  0.6+    031211 926  1.0+  0.8+
031120 704  0.2-  0.1-    031124 715  0.1+  0.2-    031212 941  0.3+  0.9-
031120 704  0.2-  0.2+    031124 715  0.0   0.3-    031212 941  0.2+  1.0-
031120 704  0.4-  0.3-    031124 291  0.1+  1.1+    031212 941  0.6+  0.3-
031120 704  0.2-  0.5-    031124 715  0.0   0.1-    031212 941  0.3+  0.2+
031120 704  0.3-  0.5-    031124 291  0.2+  0.9+    031218 715  0.3-  0.2-
031120 448  0.1+  0.3-    031124 715  0.0   0.3-    031218 715  0.4-  0.2-
031120 448  0.0   0.2-    031124 170  0.7-  0.2+    031218 715  0.3-  0.3-
031120 448  0.1+  0.6-    031124 170  0.5-  0.1+    031220 941  0.0   1.2-
031120 448  0.2-  0.3-    031124 170  0.0   0.2+    031220 941  0.5+  1.4-
031120 649  0.0   0.4-    031124 176  0.1+  0.1-    031220 941  0.5+  0.6-
031120 649  0.1+  0.3-    031124 176  0.1+  0.1-    031220 941  0.9+  0.8-
031120 649  0.1-  0.3-    031124 176  0.0   0.1-    031220 941  0.8+  0.4-
031120 649  0.2+  0.3-    031124 176  0.0   0.0     031220 941  0.6+  0.6-
031120 649  0.3+  0.0     031124 176  0.0   0.0     070518 291  0.0   0.0
031120 170  0.1+  0.3-    031126 649  0.2-  0.1-    070518 291  0.3-  0.8-
031120 170  0.1+  0.5-    031126 649  0.2-  0.1-    070518 291  0.1-  0.3+
031120 170  0.4-  0.6-    031126 649  0.4-  0.4-    070519 291  0.0   0.2-
031120 170  0.0   0.3-    031127 H72  0.7+  1.3-    070519 291  0.1+  0.7+
031120 170  0.1-  0.5-    031127 H72  0.1+  0.4+    070519 291  0.4+  0.2-

Ephemeris:
2003 WG                  a,e,i = 2.44, 0.78, 27                  q = 0.5282
Date    TT    R. A. (2000) Decl.     Delta      r     Elong.  Phase     V
2007 05 20    10 27.40   +30 46.5    0.739    1.238    88.5    54.8    20.9
2007 05 30    10 09.14   +25 38.8    0.712    1.103    77.3    63.7    20.8
2007 06 09    09 53.00   +19 46.0    0.678    0.966    66.1    74.0    20.8
2007 06 19    09 34.60   +13 11.3    0.635    0.827    54.4    87.0    20.8
2007 06 29    09 07.06   +06 10.1    0.588    0.696    41.5   104.4    21.0
2007 07 09    08 22.33   +00 06.7    0.560    0.587    28.3   124.8    21.9
2007 07 19    07 25.68   -01 32.8    0.588    0.531    23.4   130.5    22.3
2007 07 29    06 45.54   +02 22.2    0.684    0.552    30.7   110.1    21.2
2007 08 08    06 33.00   +08 14.5    0.805    0.640    39.1    88.4    20.8
2007 08 18    06 36.56   +13 38.1    0.912    0.763    46.4    73.8    20.9
2007 08 28    06 46.40   +18 11.1    0.994    0.900    53.3    64.3    21.1
2007 09 07    06 57.80   +22 06.5    1.050    1.038    60.5    57.7    21.4
2007 09 17    07 08.40   +25 40.5    1.084    1.174    68.3    52.7    21.6
2007 09 27    07 16.77   +29 07.2    1.100    1.306    76.7    48.3    21.7
2007 10 07    07 21.83   +32 37.0    1.102    1.434    85.9    44.1    21.8
2007 10 17    07 22.35   +36 16.5    1.096    1.556    96.0    39.6    21.8
2007 10 27    07 16.99   +40 06.4    1.089    1.674   106.9    34.6    21.8
2007 11 06    07 04.36   +43 58.2    1.087    1.787   118.4    29.2    21.8
2007 11 16    06 43.43   +47 31.7    1.100    1.895   130.2    23.5    21.8
2007 11 26    06 14.84   +50 18.2    1.134    2.000   141.0    18.1    21.8
2007 12 06    05 41.87   +51 52.7    1.195    2.100   148.7    14.1    21.9

Gareth V. Williams           (C) Copyright 2007 MPC           M.P.E.C. 2007-K24

Read MPEC 2007-K23 Read MPEC 2007-K25


Our Web policy. Index to the CBAT/MPC/ICQ pages.


Valid HTML 4.01!